Weather History for CYBN - September, 2013

Change the Weather History Date:

Wednesday, September 11, 2013

  Actual Average Record
Temperature  
Mean Temperature 76 °F -  
Max Temperature 85 °F 64 °F - ()
Min Temperature 66 °F 43 °F - ()
Cooling Degree Days 10    
Growing Degree Days 26 (Base 50)    
Moisture  
Dew Point 65 °F    
Average Humidity 69    
Maximum Humidity 88    
Minimum Humidity 52    
Precipitation  
Precipitation 0.00 in - - ()
Sea Level Pressure  
Sea Level Pressure 29.95 in    
Wind  
Wind Speed 6 mph ()    
Max Wind Speed 13 mph    
Max Gust Speed 18 mph    
Visibility 8.9 miles    
Events Rain    
T = Trace of Precipitation, MM = Missing Value Source: Averaged Metar Reports

Daily Weather History Graph

Daily Weather History Graph

Search for Another Location

Airport or City:

Trip Planner

Search our weather history database for the weather conditions in past years. The results will help you decide how hot, cold, wet, or windy it might be!

Date:

Astronomy

Sep. 11, 2013 Rise Set
Actual Time 6:54 AM EDT 7:37 PM EDT
Civil Twilight 6:25 AM EDT 8:06 PM EDT
Nautical Twilight 5:50 AM EDT 8:41 PM EDT
Astronomical Twilight 5:14 AM EDT 9:17 PM EDT
Moon 1:35 PM EDT (9/11) 11:17 PM EDT (9/11)
Length of Visible Light 13h 41m
Length of Day
12h 42m
Waxing Crescent, 38% of the Moon is Illuminated
Sep 11
Waxing Crescent
Sep 12
First Quarter
Sep 19
Full
Sep 26
Last Quarter
Oct 4
New

Hourly Weather History & Observations

Time (EDT) Temp. Heat Index Dew Point Humidity Pressure Visibility Wind Dir Wind Speed Gust Speed Precip Events Conditions
12:00 AM 78.8 °F - 60.8 °F 54% 29.94 in 9.0 mi WSW 12.7 mph 18.4 mph N/A   Clear
1:00 AM 78.8 °F - 60.8 °F 54% 29.93 in 9.0 mi West 9.2 mph - N/A   Clear
2:00 AM 76 °F - 62 °F 52% 29.93 in 9 mi West 6.9 mph - -  
2:00 AM 77.0 °F - 62.6 °F 61% 29.93 in 9.0 mi West 6.9 mph - N/A   Clear
3:00 AM 75.2 °F - 62.6 °F 65% 29.93 in 9.0 mi West 6.9 mph - N/A   Clear
4:00 AM 75.2 °F - 62.6 °F 65% 29.93 in 9.0 mi West 8.1 mph - N/A   Clear
5:00 AM 75.2 °F - 62.6 °F 65% 29.95 in 9.0 mi West 8.1 mph - N/A   Clear
6:00 AM 69.8 °F - 62.6 °F 78% 29.97 in 9.0 mi North 4.6 mph - N/A   Clear
7:00 AM 68.0 °F - 62.6 °F 83% 29.99 in 9.0 mi NNW 2.3 mph - N/A   Clear
8:00 AM 69 °F - 64 °F 79% 29.99 in 9 mi Calm Calm - -  
8:00 AM 69.8 °F - 64.4 °F 83% 29.99 in 9.0 mi Calm Calm - N/A   Clear
9:00 AM 73.4 °F - 64.4 °F 73% 29.97 in 9.0 mi SSE 3.5 mph - N/A   Clear
10:00 AM 77.0 °F - 66.2 °F 69% 29.95 in 9.0 mi SSE 9.2 mph - N/A   Clear
11:00 AM 82.4 °F 84.6 °F 66.2 °F 58% 29.95 in 9.0 mi SSW 5.8 mph - N/A   Clear
12:00 PM 84.2 °F 86.6 °F 66.2 °F 55% 29.95 in 9.0 mi West 12.7 mph - N/A   Scattered Clouds
12:38 PM 80.6 °F 83.2 °F 68.0 °F 65% 29.96 in 9.0 mi North 10.4 mph - N/A Rain Heavy Rain
12:43 PM 77.0 °F - 69.8 °F 78% 29.97 in 6.0 mi North 9.2 mph - N/A Rain Heavy Rain
12:50 PM 77.0 °F - 69.8 °F 78% 29.97 in 9.0 mi North 6.9 mph - N/A Rain Rain
12:59 PM 77.0 °F - 69.8 °F 78% 29.96 in 9.0 mi NNW 5.8 mph - N/A   Scattered Clouds
1:00 PM 78.8 °F - 69.8 °F 74% 29.96 in 9.0 mi North 4.6 mph - N/A   Scattered Clouds
2:00 PM 82 °F - 68 °F 53% 29.94 in 9 mi North 5.8 mph - -  
2:00 PM 82.4 °F 85.4 °F 68.0 °F 62% 29.94 in 9.0 mi NNW 3.5 mph - N/A   Partly Cloudy
3:00 PM 80.6 °F 82.7 °F 66.2 °F 61% 29.94 in 9.0 mi NNW 5.8 mph - N/A   Mostly Cloudy
4:00 PM 80.6 °F 82.7 °F 66.2 °F 61% 29.92 in 9.0 mi North 8.1 mph - N/A   Partly Cloudy
5:00 PM 80.6 °F 82.7 °F 66.2 °F 61% 29.91 in 9.0 mi North 8.1 mph - N/A   Clear
6:00 PM 78.8 °F - 66.2 °F 65% 29.93 in 9.0 mi NNW 5.8 mph - N/A   Partly Cloudy
7:00 PM 75.2 °F - 66.2 °F 73% 29.93 in 9.0 mi NNW 5.8 mph - N/A   Clear
8:00 PM 72 °F - 65 °F 72% 29.92 in 9 mi NNW 4.6 mph - -  
8:00 PM 71.6 °F - 64.4 °F 78% 29.92 in 9.0 mi NNW 4.6 mph - N/A   Partly Cloudy
9:00 PM 69.8 °F - 64.4 °F 83% 29.93 in 9.0 mi Calm Calm - N/A   Partly Cloudy
10:00 PM 68.0 °F - 64.4 °F 88% 29.94 in 9.0 mi Calm Calm - N/A   Scattered Clouds
11:00 PM 68.0 °F - 64.4 °F 88% 29.93 in 9.0 mi Calm Calm - N/A   Mostly Cloudy